Location: Unspecified
(0.0000°N, 0.0000°E)
Time: 02:55:14
(UTC+02:00)

Milstar 3 - Visible Passes

Search period start: 30 July 2014 00:00
Search period end: 09 August 2014 00:00
Orbit: 1102 x 5144 km, 28.2° (Epoch: 24 June)

Date Brightness Start Highest point End Pass type
(mag) Time Alt. Az. Time Alt. Az. Time Alt. Az.
30 Jul 5.7 00:30:45 13° ENE 00:30:45 13° ENE 00:32:08 10° ENE visible
30 Jul 5.8 02:28:58 10° WSW 03:04:13 48° N 03:18:54 10° NE visible
30 Jul 6.0 05:38:41 10° WNW 05:53:00 21° NNW 06:02:18 10° NNE visible
30 Jul 5.8 22:28:08 10° SW 22:56:37 68° SSE 23:05:17 57° E visible
31 Jul 5.9 01:20:54 10° WSW 02:05:21 43° NNE 02:16:36 10° NE visible
31 Jul 6.0 04:38:49 23° NW 04:48:02 29° NNW 05:00:57 10° NNE visible
31 Jul 5.8 07:33:57 10° NNW 07:40:31 15° N 07:45:32 10° NNE visible
31 Jul 5.9 21:24:45 10° SW 21:49:21 56° SSE 22:08:45 31° E visible
01 Aug 5.8 00:14:32 10° WSW 01:06:21 29° NE 01:13:35 10° NE visible
01 Aug 6.0 03:15:18 10° W 03:42:32 38° NNW 03:59:18 10° NE visible
01 Aug 6.0 06:26:02 10° NW 06:36:21 18° N 06:43:32 10° NNE visible
01 Aug 6.0 20:22:02 10° SW 20:42:28 44° SSE 21:12:28 10° E visible
01 Aug 5.8 23:09:34 10° WSW 23:39:41 86° SSE 00:09:38 10° ENE visible
02 Aug 5.9 02:05:29 10° W 02:40:37 47° N 02:57:13 10° NE visible
02 Aug 6.1 05:15:24 10° WNW 05:31:30 22° NNW 05:41:47 10° NNE visible
02 Aug 5.8 22:05:43 10° SW 22:32:29 72° SSE 22:50:19 39° ENE visible
03 Aug 6.0 00:57:40 10° WSW 01:41:09 45° NNE 01:54:34 10° NE visible
03 Aug 6.1 04:14:31 22° NW 04:25:59 29° NNW 04:39:58 10° NE visible
03 Aug 5.8 07:10:28 10° NW 07:19:32 18° N 07:25:54 10° NE visible
03 Aug 5.9 21:02:44 10° SW 21:25:37 58° SSE 21:54:58 15° ENE visible
03 Aug 5.8 23:51:37 10° WSW 00:22:39 75° NNW 00:51:11 10° NE visible
04 Aug 6.1 02:51:55 10° W 03:19:49 37° NNW 03:37:54 10° NE visible
04 Aug 6.0 06:02:32 10° NW 06:15:11 20° N 06:23:32 10° NE visible
04 Aug 5.9 20:00:25 10° SW 20:19:20 46° SSE 20:49:11 10° E visible
04 Aug 5.8 22:47:01 10° WSW 23:15:24 90° NNW 23:46:52 10° ENE visible
05 Aug 6.1 01:42:16 10° W 02:13:04 47° NNW 02:35:24 10° NE visible
05 Aug 6.1 04:51:57 10° WNW 05:09:58 24° NNW 05:21:18 10° NE visible
05 Aug 5.8 21:43:31 10° SW 22:08:24 76° SSE 22:41:20 10° ENE visible
06 Aug 6.0 00:34:43 10° WSW 01:05:52 59° NNW 01:32:21 10° NE visible
06 Aug 6.2 03:40:01 10° WNW 04:03:53 29° NNW 04:19:00 10° NE visible
06 Aug 5.8 06:46:52 10° NW 06:58:30 22° N 07:06:04 10° NE visible
06 Aug 5.8 20:40:52 10° SW 21:02:00 61° SSE 21:34:19 10° ENE visible
06 Aug 5.9 23:29:00 10° WSW 23:58:27 71° NNW 00:28:33 10° NE visible
07 Aug 6.2 02:28:43 10° W 02:57:03 37° NNW 03:16:27 10° NE visible
07 Aug 6.0 05:38:48 10° NW 05:53:56 23° N 06:03:28 10° NE visible
07 Aug 5.8 22:24:43 10° WSW 22:51:12 85° NNW 23:23:48 10° ENE visible
08 Aug 6.2 01:19:20 10° W 01:49:39 46° NNW 02:13:29 10° NE visible
08 Aug 6.2 04:28:21 10° WNW 04:48:21 26° N 05:00:50 10° NE visible
08 Aug 5.4 07:29:09 10° NW 07:41:07 29° NNE 07:48:31 10° ENE visible
08 Aug 5.8 21:21:32 10° SW 21:44:28 80° SSE 22:17:54 10° ENE visible
